Topeka, KS

3:09 AM CDT on August 27, 2016 (GMT -0500)
Elmhurst | | Change Station

Elev 953 ft 39.05 °N, 95.70 °W | Updated 4 minutes ago

Clear
Clear
69.3 °F
Feels Like 69.3 °F
N
1.0
Wind Variable Wind from SSE

Today
High -- | Low -- °F
--% Chance of Precip.
Yesterday
High -- | Low -- °F
Precip. -- in
Pressure 29.97 in
Visibility 8.0 miles
Clouds Clear
Dew Point 68 °F
Humidity 97%
Rainfall 0.00 in
Snow Depth Not available.
6:47 AM 7:59 PM
Waning Crescent, 26% visible
METAR KTOP 270753Z AUTO 00000KT 8SM CLR 20/19 A2999 RMK AO2 SLP148 T02000194 $
Pressure 29.97 in
Visibility 8.0 miles
Clouds Clear
Dew Point 68 °F
Humidity 97%
Rainfall 0.00 in
Snow Depth Not available.
6:47 AM 7:59 PM
Waning Crescent, 26% visible
METAR KTOP 270753Z AUTO 00000KT 8SM CLR 20/19 A2999 RMK AO2 SLP148 T02000194 $

10-Day Weather Forecast

Almanac

Astronomy

Aug. 27, 2016 Rise Set
Actual Time
Civil Twilight
Nautical Twilight
Astronomical Twilight
Moon
Length of Visible Light
Length of Day
Tomorrow will be .
, % of the Moon is Illuminated

Today's Extremes

State Highs State Lows

Community

WunderPhotos

Upload Photos

1,935,303 photos uploaded!

WunderBlog® & News

Nearby

Air Quality

  Air Quality AQ Index Pollutant
Not available.

Snow Depth

Station Depth Elevation

Earthquake Activity

City Distance Mag. Time & Date
Minimum magnitude displayed is 2.5.

Coastal Water Temperatures

Place Temperature

Stations

Nearby Weather Stations

Station Location Temp. Windchill Dew Point Humidity Wind Precip. Elev Updated Type
                   

Watches & Warnings

There are currently no watches in effect.